Location: Deuil
(48.9767°N, 2.3272°E)
Time: 12:12:06
(UTC+00:00)

Cosmos 2228 - Pass Details

Date: 04 June 2022
Orbit: 586 x 617 km, 82.5° (Epoch: 01 July)

Event Time Altitude Azimuth Distance (km) Brightness Sun altitude
Rises 02:05:55 0° 340° (NNW) 2,878 7.1 -12.4°
Reaches altitude 10° 02:08:23 10° 329° (NNW) 1,963 6.0 -12.1°
Maximum altitude 02:12:02 27° 271° (W) 1,165 4.2 -11.8°
Enters shadow 02:14:27 17° 225° (SW) 1,555 4.5 -11.6°
